Red Oak, IA

3:11 AM CDT on October 18, 2017 (GMT -0500)
Red Oak Municipal

Weather History for KRDK - September, 2012

Change the Weather History Date:

Friday, September 28, 2012

  Actual Average Record
Temperature  
Mean Temperature 58 °F -  
Max Temperature 75 °F 74 °F 138 °F (1997)
Min Temperature 41 °F 47 °F 28 °F (1951)
Degree Days  
Heating Degree Days 7    
Growing Degree Days 8 (Base 50)    
Moisture  
Dew Point 42 °F    
Average Humidity 62    
Maximum Humidity 87    
Minimum Humidity 22    
Precipitation  
Precipitation 0.00 in - - ()
Sea Level Pressure  
Sea Level Pressure 30.17 in    
Wind  
Wind Speed 1 mph (SE)    
Max Wind Speed 9 mph    
Max Gust Speed -    
Visibility 10 miles    
Events      
Averages and records for this station are not official NWS values.
T = Trace of Precipitation, MM = Missing Value Source: NWS Daily Summary

Daily Weather History Graph

Daily Weather History Graph

Search for Another Location

Airport or City:

Trip Planner

Search our weather history database for the weather conditions in past years. The results will help you decide how hot, cold, wet, or windy it might be!

Date:

Astronomy

Sep. 28, 2012 Rise Set
Actual Time 7:15 AM CDT 7:07 PM CDT
Civil Twilight 6:47 AM CDT 7:34 PM CDT
Nautical Twilight 6:15 AM CDT 8:06 PM CDT
Astronomical Twilight 5:43 AM CDT 8:38 PM CDT
Moon 6:09 PM CDT (9/28) 5:46 AM CDT (9/28)
Length of Visible Light 12h 46m
Length of Day
11h 52m
Waxing Gibbous, 98% of the Moon is Illuminated
Sep 28
Waxing Gibbous
Sep 29
Full
Oct 8
Last Quarter
Oct 15
New
Oct 21
First Quarter

Hourly Weather History & Observations

Time (CDT) Temp. Windchill Dew Point Humidity Pressure Visibility Wind Dir Wind Speed Gust Speed Precip Events Conditions
12:15 AM 44.6 °F - 37.4 °F 76% 30.16 in 10.0 mi Calm Calm - N/A   Clear
12:35 AM 44.6 °F - 37.4 °F 76% 30.15 in 10.0 mi Calm Calm - N/A   Clear
12:55 AM 42.8 °F - 37.4 °F 81% 30.14 in 10.0 mi Calm Calm - N/A   Clear
1:15 AM 44.6 °F - 37.4 °F 76% 30.14 in 10.0 mi Calm Calm - N/A   Clear
1:35 AM 42.8 °F - 37.4 °F 81% 30.15 in 10.0 mi Calm Calm - N/A   Clear
1:55 AM 42.8 °F - 37.4 °F 81% 30.15 in 10.0 mi Calm Calm - N/A   Clear
2:15 AM 42.8 °F - 37.4 °F 81% 30.16 in 10.0 mi Calm Calm - N/A   Clear
2:35 AM 41.0 °F - 35.6 °F 81% 30.16 in 10.0 mi Calm Calm - N/A   Clear
2:55 AM 42.8 °F - 37.4 °F 81% 30.16 in 10.0 mi Calm Calm - N/A   Scattered Clouds
3:15 AM 42.8 °F - 37.4 °F 81% 30.15 in 10.0 mi Calm Calm - N/A   Scattered Clouds
3:35 AM 42.8 °F 41.1 °F 37.4 °F 81% 30.15 in 10.0 mi NNE 3.5 mph - N/A   Scattered Clouds
3:55 AM 42.8 °F - 37.4 °F 81% 30.16 in 10.0 mi Calm Calm - N/A   Clear
4:15 AM 42.8 °F - 37.4 °F 81% 30.17 in 10.0 mi Calm Calm - N/A   Clear
4:35 AM 42.8 °F - 37.4 °F 81% 30.17 in 10.0 mi Calm Calm - N/A   Clear
4:55 AM 42.8 °F - 35.6 °F 76% 30.18 in 10.0 mi Calm Calm - N/A   Scattered Clouds
5:15 AM 41.0 °F - 35.6 °F 81% 30.17 in 10.0 mi Calm Calm - N/A   Scattered Clouds
5:35 AM 42.8 °F - 35.6 °F 76% 30.18 in 10.0 mi Calm Calm - N/A   Clear
5:55 AM 41.0 °F - 35.6 °F 81% 30.18 in 10.0 mi Calm Calm - N/A   Clear
6:15 AM 42.8 °F - 37.4 °F 81% 30.18 in 10.0 mi Calm Calm - N/A   Clear
6:35 AM 41.0 °F - 37.4 °F 87% 30.18 in 10.0 mi Calm Calm - N/A   Clear
7:15 AM 41.0 °F - 35.6 °F 81% 30.19 in 10.0 mi Calm Calm - N/A   Clear
7:35 AM 41.0 °F - 35.6 °F 81% 30.19 in 10.0 mi Calm Calm - N/A   Clear
7:55 AM 42.8 °F - 37.4 °F 81% 30.19 in 10.0 mi Calm Calm - N/A   Clear
8:15 AM 44.6 °F - 39.2 °F 81% 30.20 in 10.0 mi Calm Calm - N/A   Clear
8:35 AM 48.2 °F - 42.8 °F 82% 30.21 in 10.0 mi Calm Calm - N/A   Clear
8:55 AM 53.6 °F - 46.4 °F 77% 30.21 in 10.0 mi Calm Calm - N/A   Clear
9:15 AM 55.4 °F - 46.4 °F 72% 30.21 in 10.0 mi Calm Calm - N/A   Clear
9:35 AM 59.0 °F - 46.4 °F 63% 30.21 in 10.0 mi Calm Calm - N/A   Clear
9:55 AM 62.6 °F - 48.2 °F 59% 30.22 in 10.0 mi SSE 6.9 mph - N/A   Clear
10:15 AM 62.6 °F - 48.2 °F 59% 30.23 in 10.0 mi South 8.1 mph - N/A   Clear
10:35 AM 64.4 °F - 50.0 °F 59% 30.22 in 10.0 mi South 9.2 mph - N/A   Clear
10:55 AM 66.2 °F - 53.6 °F 64% 30.22 in 10.0 mi SSE 8.1 mph - N/A   Clear
11:15 AM 68.0 °F - 53.6 °F 60% 30.21 in 10.0 mi South 4.6 mph - N/A   Clear
11:35 AM 69.8 °F - 55.4 °F 60% 30.21 in 10.0 mi SE 3.5 mph - N/A   Clear
11:55 AM 68.0 °F - 55.4 °F 64% 30.21 in 10.0 mi SE 3.5 mph - N/A   Clear
12:15 PM 69.8 °F - 55.4 °F 60% 30.21 in 10.0 mi SSE 3.5 mph - N/A   Clear
12:35 PM 69.8 °F - 53.6 °F 56% 30.20 in 10.0 mi Calm Calm - N/A   Clear
12:55 PM 69.8 °F - 53.6 °F 56% 30.20 in 10.0 mi Calm Calm - N/A   Clear
1:15 PM 71.6 °F - 51.8 °F 50% 30.20 in 10.0 mi SE 3.5 mph - N/A   Clear
1:35 PM 71.6 °F - 51.8 °F 50% 30.19 in 10.0 mi ESE 3.5 mph - N/A   Clear
1:55 PM 73.4 °F - 51.8 °F 47% 30.18 in 10.0 mi South 5.8 mph - N/A   Clear
2:15 PM 73.4 °F - 50.0 °F 44% 30.17 in 10.0 mi ESE 3.5 mph - N/A   Clear
2:35 PM 73.4 °F - 46.4 °F 38% 30.17 in 10.0 mi Calm Calm - N/A   Clear
2:55 PM 75.2 °F - 46.4 °F 36% 30.17 in 10.0 mi Calm Calm - N/A   Clear
3:15 PM 75.2 °F - 44.6 °F 34% 30.16 in 10.0 mi East 5.8 mph - N/A   Clear
3:35 PM 75.2 °F - 42.8 °F 31% 30.16 in 10.0 mi East 3.5 mph - N/A   Clear
3:55 PM 75.2 °F - 35.6 °F 24% 30.15 in 10.0 mi Calm Calm - N/A   Clear
4:15 PM 75.2 °F - 35.6 °F 24% 30.14 in 10.0 mi Calm Calm - N/A   Clear
4:35 PM 75.2 °F - 35.6 °F 24% 30.14 in 10.0 mi East 4.6 mph - N/A   Clear
4:55 PM 73.4 °F - 35.6 °F 25% 30.13 in 10.0 mi Calm Calm - N/A   Clear
5:15 PM 75.2 °F - 35.6 °F 24% 30.13 in 10.0 mi ESE 3.5 mph - N/A   Clear
5:35 PM 75.2 °F - 33.8 °F 22% 30.13 in 10.0 mi SE 3.5 mph - N/A   Scattered Clouds
5:55 PM 73.4 °F - 33.8 °F 23% 30.13 in 10.0 mi Calm Calm - N/A   Clear
6:15 PM 73.4 °F - 35.6 °F 25% 30.13 in 10.0 mi Calm Calm - N/A   Clear
6:35 PM 71.6 °F - 37.4 °F 29% 30.13 in 10.0 mi Calm Calm - N/A   Clear
6:55 PM 69.8 °F - 37.4 °F 31% 30.13 in 10.0 mi Calm Calm - N/A   Clear
7:15 PM 68.0 °F - 39.2 °F 35% 30.13 in 10.0 mi Calm Calm - N/A   Scattered Clouds
7:35 PM 60.8 °F - 42.8 °F 52% 30.13 in 10.0 mi Calm Calm - N/A   Clear
7:55 PM 55.4 °F - 42.8 °F 63% 30.14 in 10.0 mi Calm Calm - N/A   Scattered Clouds
8:15 PM 55.4 °F - 42.8 °F 63% 30.14 in 10.0 mi Calm Calm - N/A   Scattered Clouds
8:35 PM 53.6 °F - 44.6 °F 72% 30.14 in 5.0 mi Calm Calm - N/A   Haze
8:55 PM 53.6 °F - 42.8 °F 67% 30.15 in 10.0 mi Calm Calm - N/A   Clear
9:15 PM 50.0 °F - 42.8 °F 76% 30.15 in 7.0 mi Calm Calm - N/A   Scattered Clouds
9:35 PM 53.6 °F - 42.8 °F 67% 30.16 in 7.0 mi Calm Calm - N/A   Scattered Clouds
9:55 PM 51.8 °F - 42.8 °F 71% 30.16 in 7.0 mi Calm Calm - N/A   Scattered Clouds
10:15 PM 50.0 °F - 41.0 °F 71% 30.17 in 7.0 mi Calm Calm - N/A   Clear
10:35 PM 48.2 °F - 41.0 °F 76% 30.17 in 10.0 mi Calm Calm - N/A   Clear
10:55 PM 48.2 °F - 41.0 °F 76% 30.17 in 10.0 mi Calm Calm - N/A   Clear
11:15 PM 46.4 °F - 39.2 °F 76% 30.17 in 10.0 mi Calm Calm - N/A   Scattered Clouds
11:35 PM 46.4 °F - 39.2 °F 76% 30.17 in 10.0 mi Calm Calm - N/A   Scattered Clouds
11:55 PM 46.4 °F - 41.0 °F 81% 30.17 in 10.0 mi Calm Calm - N/A   Scattered Clouds